Zurück zum Katalog

CHINASAT 9A

AktivKommunikationGEO
NORAD 42763·PAYLOAD·🇨🇳 China

Gestartet Jun 18, 2017 von Xichang Satellite Launch Center

Loading…

TLE

AktuellSource: Space-Track

Epoche: Sep 14, 2026, 11:01 UTC

1 42763U 17035A   26257.45942465 -.00000346  00000-0  00000-0 0  9993
2 42763   5.2073  74.0775 0000748 333.3069 247.1166  0.99790606 34546

Verfolge CHINASAT 9A in Echtzeit mit AllMySat

Download on the App Store